Content
SEND FEEDBACK

Daily
Averages
Monthly
Summary
United States of America

WESLACO, TEXAS


Home > North America > United States > Texas
Elevation: 8 feet     Latitude: 26 09N     Longitude: 097 58W

WEATHER
 
SELECT A DAY
Number of Records: 194,947;   Date Range: 9/11/02 - 9/16/14
 
SHARE

PRINT THIS DATA

[ ← Previous Day ]
WEATHER ALMANAC - JANUARY 23, 2013
[ Next Day → ]
[ °C ]   °F
Weather ElementAverageHighLow
Temperature67.3 °F80.6 °F (4:15 pm)56.1 °F (6:55 am)
Dewpoint58.6 °F63.3 °F (11:35 am)52.7 °F (1:55 am)
Humidity75.2 %92 % (6:55 am)48 % (4:15 pm)
Barometer30.26 in30.32 in (10:15 am)30.21 in (3:55 pm)
Wind Speed5.6 mph13.8 mph (5:55 pm)
Wind Gust16.1 mph (5:15 pm)
Weather ElementAverage
Visibility9.5 mi
Wind DirectionESE (99.2 °)

Weather ElementTotal
Precipitation---
Cooling Degree Days3.3 (Base 65)
Growing Degree Days18.4 (Base 50)
Averaged from 71 records on January 23, 2013
WEATHER CONDITIONS BREAKOUT
WIND DIRECTION BREAKOUT
WEATHER BY HOUR - JANUARY 23, 2013
[ °C ]   °F
Local TimeTemperatureDewpointHumidityBarometerVisibilityWind DirectionWind SpeedGust SpeedPrecipitationEventsConditions
12:35 AM58.1 °F53.2 °F84 %30.25 in10.0 miCalmScattered Clouds
12:55 AM58.1 °F54.5 °F88 %30.25 in10.0 miCalmScattered Clouds
1:15 AM57.7 °F54.1 °F88 %30.25 in10.0 miCalmScattered Clouds
1:35 AM58.5 °F54.5 °F87 %30.25 in10.0 miCalmOvercast
1:55 AM57.2 °F52.7 °F85 %30.25 in10.0 miCalmScattered Clouds
2:15 AM57.6 °F54.0 °F88 %30.24 in10.0 miCalmScattered Clouds
2:35 AM57.4 °F54.1 °F89 %30.24 in10.0 miNE (40°)3.5 mphScattered Clouds
2:55 AM57.7 °F54.5 °F89 %30.23 in10.0 miNE (50°)3.5 mphClear
3:15 AM57.4 °F54.0 °F88 %30.23 in10.0 miCalmClear
3:35 AM57.9 °F54.3 °F88 %30.23 in10.0 miCalmClear
3:55 AM57.2 °F53.8 °F88 %30.23 in10.0 miCalmClear
4:15 AM58.1 °F54.3 °F87 %30.23 in10.0 miCalmClear
4:35 AM56.8 °F53.6 °F89 %30.23 in10.0 miCalmScattered Clouds
4:55 AM58.6 °F55.4 °F89 %30.23 in10.0 miEast (90°)3.5 mphScattered Clouds
5:15 AM59.2 °F55.8 °F88 %30.23 in10.0 miCalmClear
5:35 AM58.8 °F55.6 °F89 %30.24 in10.0 miCalmClear
5:55 AM57.0 °F54.0 °F89 %30.24 in10.0 miCalmScattered Clouds
6:15 AM56.7 °F54.1 °F91 %30.25 in7.0 miCalmScattered Clouds
6:35 AM57.2 °F54.7 °F91 %30.26 in7.0 miCalmScattered Clouds
6:55 AM56.1 °F53.8 °F92 %30.26 in5.0 miNNE (20°)3.5 mphClear
7:15 AM56.3 °F53.8 °F91 %30.27 in7.0 miCalmScattered Clouds
7:35 AM56.3 °F54.0 °F92 %30.28 in7.0 miCalmMostly Cloudy
7:55 AM57.2 °F54.7 °F91 %30.29 in5.0 miCalmOvercast
8:15 AM59.0 °F56.3 °F91 %30.29 in4.0 miCalmMostly Cloudy
8:35 AM60.3 °F57.0 °F89 %30.29 in7.0 miCalmMostly Cloudy
8:55 AM62.2 °F58.3 °F87 %30.30 in7.0 miNE (50°)3.5 mphOvercast
9:15 AM65.1 °F59.0 °F81 %30.30 in10.0 miEast (80°)3.5 mphMostly Cloudy
9:35 AM67.1 °F59.9 °F78 %30.31 in10.0 miEast (100°)3.5 mphMostly Cloudy
9:55 AM70.7 °F61.7 °F73 %30.31 in10.0 miSE (130°)6.9 mphMostly Cloudy
10:15 AM71.6 °F62.6 °F73 %30.32 in10.0 miSE (140°)6.9 mphMostly Cloudy
10:35 AM73.4 °F63.0 °F70 %30.32 in10.0 miSSE (150°)11.5 mphOvercast
10:55 AM73.9 °F63.1 °F69 %30.32 in10.0 miSSE (160°)12.7 mphOvercast
11:15 AM75.6 °F63.1 °F65 %30.32 in10.0 miSE (130°)9.2 mphOvercast
11:35 AM76.6 °F63.3 °F63 %30.31 in10.0 miSouth (170°)9.2 mphOvercast
11:55 AM76.3 °F63.3 °F64 %30.30 in10.0 miSSE (150°)8.1 mphOvercast
12:15 PM75.6 °F62.8 °F64 %30.29 in10.0 miSSE (160°)8.1 mphOvercast
12:35 PM77.4 °F61.7 °F58 %30.28 in10.0 miSouth (180°)9.2 mphOvercast
12:55 PM79.0 °F61.0 °F54 %30.27 in10.0 miSouth (190°)8.1 mphOvercast
1:15 PM77.5 °F60.8 °F56 %30.26 in10.0 miSSE (160°)9.2 mphOvercast
1:35 PM76.6 °F61.7 °F60 %30.25 in10.0 miSSE (160°)9.2 mphMostly Cloudy
1:55 PM79.3 °F61.5 °F54 %30.25 in10.0 miSouth (170°)5.8 mphOvercast
2:15 PM78.8 °F61.2 °F55 %30.24 in10.0 miSSE (150°)9.2 mphOvercast
2:35 PM77.4 °F61.5 °F58 %30.24 in10.0 miSE (140°)5.8 mphOvercast
2:55 PM77.4 °F60.4 °F56 %30.23 in10.0 miSE (140°)6.9 mphMostly Cloudy
3:15 PM78.8 °F60.6 °F54 %30.22 in10.0 miSSE (150°)11.5 mphScattered Clouds
3:35 PM79.0 °F59.9 °F52 %30.22 in10.0 miSSE (160°)10.4 mphMostly Cloudy
3:55 PM77.9 °F59.9 °F54 %30.21 in10.0 miSSE (150°)9.2 mphMostly Cloudy
4:15 PM80.6 °F59.4 °F48 %30.21 in10.0 miSouth (170°)12.7 mphMostly Cloudy
4:35 PM79.9 °F59.4 °F49 %30.21 in10.0 miSouth (170°)11.5 mphScattered Clouds
4:55 PM78.3 °F59.7 °F53 %30.21 in10.0 miSE (140°)9.2 mphMostly Cloudy
5:15 PM77.0 °F60.3 °F56 %30.21 in10.0 miSE (130°)10.4 mph16.1 mphMostly Cloudy
5:35 PM77.0 °F59.4 °F54 %30.21 in10.0 miSouth (170°)12.7 mphMostly Cloudy
5:55 PM75.4 °F59.9 °F58 %30.21 in10.0 miSSE (160°)13.8 mphClear
6:15 PM74.1 °F59.9 °F61 %30.21 in10.0 miSSE (160°)9.2 mphClear
6:35 PM73.0 °F60.1 °F64 %30.22 in10.0 miSSE (150°)8.1 mphClear
6:55 PM71.8 °F60.3 °F67 %30.23 in10.0 miSSE (150°)9.2 mphClear
7:15 PM70.9 °F60.8 °F70 %30.24 in10.0 miSE (140°)6.9 mphClear
7:35 PM70.2 °F61.0 °F73 %30.24 in10.0 miSSE (150°)9.2 mphClear
7:55 PM69.1 °F61.0 °F75 %30.25 in10.0 miSSE (150°)8.1 mphClear
8:15 PM68.5 °F61.3 °F78 %30.26 in10.0 miSSE (150°)9.2 mphClear
8:35 PM68.2 °F61.7 °F80 %30.26 in10.0 miSSE (150°)9.2 mphClear
8:55 PM67.6 °F61.7 °F81 %30.27 in10.0 miSE (140°)5.8 mphClear
9:15 PM67.1 °F61.2 °F81 %30.27 in10.0 miSE (140°)5.8 mphClear
9:35 PM66.4 °F60.8 °F82 %30.27 in10.0 miSE (140°)5.8 mphClear
9:55 PM66.0 °F60.4 °F82 %30.27 in10.0 miSSE (150°)5.8 mphClear
10:15 PM65.5 °F60.1 °F83 %30.27 in10.0 miSSE (160°)6.9 mphClear
10:35 PM65.3 °F59.9 °F83 %30.26 in10.0 miSSE (160°)6.9 mphClear
10:55 PM64.9 °F59.9 °F84 %30.26 in10.0 miSSE (160°)6.9 mphClear
11:15 PM64.6 °F59.9 °F85 %30.26 in10.0 miSSE (160°)6.9 mphClear
11:35 PM64.4 °F59.9 °F85 %30.26 in10.0 miSSE (160°)6.9 mphClear
11:55 PM64.0 °F59.9 °F86 %30.26 in10.0 miSSE (160°)8.1 mphClear
Hourly data recorded from KT65, located miles away from Weslaco, Texas







STORIES FROM OUR PARTNERS